Hourly Data Report for October 14, 2015

All times are specified in Local Standard Time (LST). Add 1 hour to adjust for Daylight Saving Time where and when it is observed.

GJOA HAVEN A
NUNAVUT

68°38'08.000" N
95°51'01.000" W
46.90 m
2302337
71597
YHK

Download Data

Hourly Data (October 2015)
Hourly Data Report for October 14, 2015
Temp Definition
°C
Dew Point Temp Definition
°C
Rel Hum Definition
%
Wind Dir Definition
10's deg

Wind Spd Definition
km/h
Visibility Definition
km
Stn Press Definition
kPa
Hmdx Definition


Wind Chill Definition


Weather Definition


TIME
00:00 Legend Double Dagger -10.2 -11.8 88 33 34 16.1 100.08   -20 Snow
01:00 Legend Double Dagger -10.5 -12.1 88 32 34 14.5 100.09   -21 Snow
02:00 Legend Double Dagger -11.1 -12.7 88 32 37 11.3 100.12   -22 Snow
03:00 Legend Double Dagger -10.7 -12.2 89 33 35 11.3 100.17   -21 Snow
04:00 Legend Double Dagger -10.5 -11.9 90 32 39 4.8 100.23   -21 Snow
05:00 Legend Double Dagger -10.7 -12.0 90 32 34 16.1 100.26   -21 Snow
06:00 Legend Double Dagger -10.2 -11.4 91 32 34 8.1 100.27   -20 Snow
07:00 Legend Double Dagger -10.2 -11.5 90 32 35 14.5 100.31   -20 Snow
08:00 Legend Double Dagger -10.1 -11.4 90 32 35 16.1 100.34   -20 Snow
09:00 Legend Double Dagger -9.7 -11.0 90 33 34 12.9 100.38   -20 Snow
10:00 Legend Double Dagger -9.6 -11.1 89 33 34 16.1 100.42   -20 Snow
11:00 Legend Double Dagger -9.3 -10.7 90 33 37 6.4 100.45   -19 Snow
12:00 Legend Double Dagger -9.6 -11.4 87 33 37 16.1 100.50   -20 LegendNANA
13:00 Legend Double Dagger -9.8 -11.7 86 34 32 16.1 100.55   -20 Snow
14:00 Legend Double Dagger -9.3 -11.1 87 33 30 12.9 100.59   -19 Snow
15:00 Legend Double Dagger -9.2 -10.9 88 32 32 9.7 100.62   -19 Snow
16:00 Legend Double Dagger -10.3 -11.9 88 32 35 4.8 100.65   -21 Snow
17:00 Legend Double Dagger -10.7 -12.3 89 32 34 8.1 100.66   -21 Snow
18:00 Legend Double Dagger -11.7 -13.5 87 33 28 16.1 100.68   -21 Snow
19:00 Legend Double Dagger -12.8 -14.5 87 31 32 16.1 100.68   -23 Snow
20:00 Legend Double Dagger -13.0 -14.5 89 30 30 6.4 100.66   -23 Snow
21:00 Legend Double Dagger -15.2 -16.6 89 31 30 16.1 100.64   -26 LegendNANA
22:00 Legend Double Dagger -15.9 -17.3 89 30 24 16.1 100.62   -26 LegendNANA
23:00 Legend Double Dagger -16.0 -17.6 88 30 28 16.1 100.61   -27 LegendNANA

Notes on Data Quality.

Legend

  • E = Estimated
  • M = Missing
  • NA = Not Available
  • ‡ = Partner data that is not subject to review by the National Climate Archives
Date modified: